Other Public Products
Issued by NWS Grand Forks, ND

Home | Current Version | Previous Version | Text Only | Print | Product List | Glossary Off
Versions: 1 2 3 4 5 6 7 8 9 10 11 12 13 14 15 16 17 18 19 20 21 22 23 24 25 26 27 28 29 30 31 32 33 34 35 36 37 38 39 40 41 42 43 44 45 46 47 48 49 50

000
FPUS83 KFGF 090231
OPUFGF
PRAIRIE TO PINES WEATHER ROUNDUP
NATIONAL WEATHER SERVICE EASTERN NORTH DAKOTA/GRAND FORKS ND
800 PM CST THU DEC 08 2016

 **SATELLITE DATA USED TO AUGMENT SKY COVER AT AUTOMATED STATIONS**
 *****  WEATHER ACROSS EASTERN NORTH DAKOTA  *****

CITY           SKY/WX    TMP DP  RH WIND       PRES   REMARKS
GRAND FORKS    CLOUDY    11   4  73 NW12      30.58F WCI  -3
GRAND FORKS AF CLOUDY     9   3  78 NW8       30.58S WCI  -4
GRAND CITY NWS NOT AVBL
BUXTON           N/A     33  31  92 NW8         N/A
DEVILS LAKE    FLURRIES   0  -5  79 NW15      30.57S WCI -19
FARGO          CLOUDY     7   0  73 W13       30.59S WCI  -9
WAHPETON ARPT  CLOUDY     7   1  78 W17       30.60S WCI -12
$$

 *****  WEATHER ACROSS CENTRAL AND WESTERN NORTH DAKOTA  *****

CITY           SKY/WX    TMP DP  RH WIND       PRES   REMARKS
JAMESTOWN      CLEAR     -3  -8  79 NW14      30.57F WCI -22
BISMARCK       CLOUDY    -2  -8  76 W5        30.62S WCI -12
MINOT          PTCLDY    -2  -8  76 W13       30.58S WCI -20
MINOT AFB      CLEAR     -6 -11  76 W12       30.58S WCI -24
GARRISON         N/A     -7 -13  75 NW12      30.58S WCI -26
WILLISTON      CLOUDY    -8 -14  74 CALM      30.59F
DICKINSON      CLOUDY   -10 -16  74 W3        30.49F
HETTINGER      CLOUDY   -12 -16  82 CALM      30.51F
$$

 *****  OTHER OBSERVATIONS NORTHEAST NORTH DAKOTA  *****

CITY           SKY/WX    TMP DP  RH WIND       PRES   REMARKS
WALHALLA         N/A      9   9 100 NW8       30.58F WCI  -4
LANGDON        MOCLDY     5   0  78 NW10      30.52S WCI -10
CAVALIER         N/A      9   5  85 N7        30.58F WCI  -3
GRAFTON        FLURRIES  10   5  79 N12       30.60S WCI  -4
CANDO          MOCLDY    -2  -6  84 W7        30.58F WCI -16
FORT TOTTEN      N/A     -1  -5  84 NW7       29.95S WCI -14
ROLLA          FLURRIES   0  -2  92 NW14      30.52S WCI -19
RUGBY            N/A     -2  -6  84 NW9       30.57S WCI -18
 ***** THE ABOVE OBSERVATIONS ARE NON NWS ARE NOT QUALITY
        CONTROLLED AND MAY MIS-REPORT RAIN FOR SNOW...
$$

 *****  OTHER OBSERVATIONS SOUTHEAST NORTH DAKOTA *****

CITY           SKY/WX    TMP DP  RH WIND       PRES   REMARKS
COOPERSTOWN    CLOUDY     1  -4  78 W14       30.56F WCI -17
VALLEY CITY    CLOUDY    -2  -6  84 NW16      30.59F WCI -23
OAKES          NOT AVBL
GWINNER        FAIR       3  -2  78 NW16      30.59F WCI -16
SHEYENNE NWR     N/A      1  -6  70 NW9       29.95S WCI -14
BUFFALO          N/A      1  -5  75 NW10        N/A  WCI -15
WYNDMERE         N/A      3   0  85 W13         N/A  WCI -14
 ***** THE ABOVE OBSERVATIONS ARE NON NWS ARE NOT QUALITY
       CONTROLLED AND MAY MIS-REPORT RAIN FOR SNOW...
$$

  *****  WEATHER ACROSS NORTHERN MINNESOTA  *****

CITY           SKY/WX    TMP DP  RH WIND       PRES   REMARKS
FLAG ISLAND    CLOUDY    10   7  85 NW20      30.47S WCI  -8
WARROAD        CLOUDY     9   1  72 NW14      30.50S WCI  -8
ROSEAU         CLEAR      3  -2  78 NW8       30.52R WCI -10
HALLOCK        CLOUDY     7   3  85 N6        30.57S WCI  -3
THF RVR FALLS  PTCLDY     7   3  84 NW14      30.54R WCI -10
HALSTAD          N/A      7   1  78 NW12        N/A  WCI  -9
FOSSTON        LGT SNOW   9   7  92 NW9       30.51S WCI  -5
BAUDETTE       FLURRIES  14   9  80 NW14      30.45S WCI  -1
WASKISH        CLOUDY    14  10  85 W13       30.46S WCI   0
CROOKSTON      PTCLDY     9   3  78 N13       30.58S WCI  -7
$$
  *****  WEATHER ACROSS CENTRAL AND WEST MINNESOTA  *****

CITY           SKY/WX    TMP DP  RH WIND       PRES   REMARKS
BEMIDJI        FLURRIES  12   9  87 W9        30.46S WCI  -1
PARK RAPIDS    CLOUDY     8   2  76 NW8       30.46S WCI  -4
WADENA         FLURRIES   9   7  92 W7        30.48F WCI  -3
DETROIT LAKES  LGT SNOW  12  10  92 NW8       30.52S WCI   1
MOORHEAD       MIX PCPN   7   1  78 NW14      30.59S WCI -10
FERGUS FALLS   FLURRIES   7   1  78 NW15      30.61S WCI -11
ELBOW LAKE     FLURRIES   7   4  88 NW16      30.56S WCI -11
MORRIS MN      MOCLDY     7   3  85 NW18      30.56R WCI -12
STAPLES        CLEAR      9   7  92 W9        30.48S WCI  -5
WHEATON        PTCLDY     7   1  78 W15       30.62S WCI -11
$$
  *****  WEATHER ELSEWHERE ACROSS MINNESOTA  *****

CITY           SKY/WX    TMP DP  RH WIND       PRES   REMARKS
DULUTH         FLURRIES  18  11  74 NW16G22   30.36R WCI   3
INTRNTL FALLS  LGT SNOW  13   6  74 NW10      30.43R WCI   0
ELY            FLURRIES  12   9  85 NW7       30.36S WCI   2
CLOQUET        CLOUDY    18   9  68 NW13G18   30.38S WCI   4
BRAINERD       PTCLDY    16  11  80 NW8       30.46S WCI   5
HIBBING        FLURRIES  14   8  77 NW14      30.40R WCI  -1
ALEXANDRIA     CLOUDY    12   9  87 NW13      30.50S WCI  -3
SAINT CLOUD    PTCLDY    15  10  80 NW12      30.48S WCI   2
MINNEAPOLIS    FLURRIES  21  11  65 NW8       30.48R WCI  11
$$

  *****  WEATHER ACROSS SOUTH DAKOTA  *****

CITY           SKY/WX    TMP DP  RH WIND       PRES   REMARKS
SIOUX FALLS    CLEAR     10   6  84 NW12      30.59S WCI  -5
BROOKINGS      CLEAR      6   2  83 NW9       30.56R WCI  -8
WATERTOWN      CLEAR      4   0  83 NW10      30.55S WCI -11
HURON          CLEAR      2  -1  88 NW7       30.64S WCI -11
SISSETON         N/A      4  -2  76 N12       30.59S WCI -12
ABERDEEN       CLEAR      1  -5  75 NW8       30.64S WCI -13
MITCHELL       CLEAR      7   2  80 NW13      30.66S WCI  -9
PIERRE         CLOUDY     5  -2  72 N8        30.61F WCI  -8
MOBRIDGE       CLOUDY     1  -6  72 NW9       30.57F WCI -14
RAPID CITY     CLOUDY     0  -7  72 CALM      30.45F
$$

  *****  SOME WEATHER IN NEARBY STATES *****

CITY           SKY/WX    TMP DP  RH WIND       PRES   REMARKS
GLASGOW MT     MOCLDY    -5 -10  79 NE8       30.52S WCI -20
GREAT FALLS MT CLOUDY    -4  -8  83 N5        30.33F WCI -15
CHEYENNE WY    CLOUDY     6   2  83 S8        30.18F WCI  -7
SCOTTSBLUFF NE CLOUDY     4  -4  69 E7        30.37S WCI  -8
OMAHA NE       CLEAR     16   7  67 NW8       30.64S WCI   5
DES MOINES IA  PTCLDY    20   9  62 NW16      30.56S WCI   6
DAVENPORT IA   FLURRIES  21  15  78 NW17      30.49R WCI   7
CHICAGO IL     FLURRIES  24  15  68 W12       30.38S WCI  13
EAU CLAIRE WI  CLOUDY    22  17  81 W9        30.40R WCI  12
LA CROSSE WI   CLOUDY    25  16  68 NW12      30.44R WCI  14
$$

  *****  SOME NATIONAL WEATHER *****

CITY           SKY/WX    TMP DP  RH WIND       PRES   REMARKS
LA GUARDIA NY  PTCLDY    40  19  43 W17G26    29.96R
RALEIGH NC     CLOUDY    40  21  46 CALM      30.20R
ATLANTA GA     CLOUDY    39  20  46 NW8       30.34R
NEW ORLEANS LA CLOUDY    51  33  50 N17G24    30.42R
OKLAHOMA CITY  CLOUDY    29   7  39 N12       30.65R WCI  19
ALBUQUERQUE NM CLOUDY    36  16  44 CALM      30.35R
SALT LAKE CITY CLOUDY    27  23  85 NW7       30.14F WCI  19
LOS ANGELES CA PTCLDY    60  54  80 SW9       30.22R
BOISE ID       LGT SNOW  26  23  88 SE12      30.07S FOG     WCI  16
SEATTLE WA     CLOUDY    35  15  44 E15G26    29.92F
$$

*** WEATHER ACROSS MANITOBA...SASKATCHEWAN AND ONTARIO ***
                ***ONTARIO***

CITY           SKY/WX    TMP DP  RH WIND       PRES   REMARKS
GERALDTON      FLURRIES  12   9  85 NW10      30.22R WCI  -1
THUNDER BAY    FLURRIES  18  10  73 NW10G17   30.33R WCI   6
SIOUX LOOKOUT  FLURRIES  10   7  85 N6        30.38S WCI   1
TORONTO        SNOWSHWR  28  25  86 W12       29.99R DRFTSNOWWCI  18
BIG TROUT LK   FLURRIES   5   1  85 NW13G20   30.37S WCI -12
PICKLE LAKE    FLURRIES   5   1  85 NW7       30.34S WCI  -7
DRYDEN         FLURRIES  10   9  92 W9        30.39S WCI  -2
KENORA         FLURRIES   7   3  85 N7        30.43  WCI  -5
$$
                *** MANITOBA***

CITY           SKY/WX    TMP DP  RH WIND       PRES   REMARKS
BRANDON        CLEAR     -6 -11  77 NW9       30.56F WCI -22
DAUPHIN        FLURRIES  -2  -6  84 N8        30.61S WCI -17
ISLAND LAKE    NOT AVBL
PILOT MOUND      N/A      3   0  85 NW10        N/A  WCI -12
THE PAS        FLURRIES  -4 -11  71 N12       30.63F WCI -22
THOMPSON       PTCLDY   -17 -24  70 NW5       30.61S WCI -29
WINNIPEG       CLOUDY     5   0  78 N13       30.58F WCI -12
LYNN LAKE      CLEAR    -17 -22  76 NW8       30.63F WCI -34
CHURCHILL      LGT SNOW  -6  -9  84 NW21G26   30.56S BLWGSNOWWCI -30
GILLAM         CLEAR    -13 -20  70 NW10      30.56F WCI -32
$$
                ***SASKATCHEWAN***

CITY           SKY/WX    TMP DP  RH WIND       PRES   REMARKS
ESTEVAN        CLEAR    -13 -17  84 W10       30.57F WCI -32
KINDERSLEY     MOCLDY   -11 -17  77 N8        30.56F WCI -28
LLOYDMINSTER   FLURRIES -13 -17  84 N5        30.58F WCI -25
PRINCE ALBERT  PTCLDY   -15 -20  76 NW3       30.65F
REGINA         PTCLDY    -9 -15  77 NW5       30.58S WCI -21
YORKTON        CLEAR     -9 -15  77 NW9       30.56F WCC1F1C2F2C3F3C4F4C5F5C6F6C7F7C8F8C9F9CaFaCbFbCcFcCdFdCe!


USA.gov is the U.S. government's official web portal to all federal, state and local government web resources and services.